Time,TemperatureF,DewpointF,PressureIn,WindDirection,WindDirectionDegrees,WindSpeedMPH,WindSpeedGustMPH,Humidity,HourlyPrecipIn,Conditions,Clouds,dailyrainin,SoftwareType,DateUTC
2013-08-07 00:01:00,60.0,54.0,29.96,SSW,195,3.0,8.0,81,0.00,,,0.00,,2013-08-07 07:01:00,
2013-08-07 00:12:00,60.0,54.0,29.96,SSW,195,3.0,8.0,81,0.00,,,0.00,,2013-08-07 07:12:00,
2013-08-07 00:33:00,59.0,54.0,29.96,SW,218,4.0,7.0,82,0.00,,,0.00,,2013-08-07 07:33:00,
2013-08-07 00:43:00,59.0,54.0,29.96,SW,218,4.0,7.0,82,0.00,,,0.00,,2013-08-07 07:43:00,
2013-08-07 00:52:00,59.0,54.0,29.96,SW,218,5.0,11.0,82,0.00,,,0.00,,2013-08-07 07:52:00,
2013-08-07 01:01:00,59.0,54.0,29.96,South,184,3.0,7.0,83,0.00,,,0.00,,2013-08-07 08:01:00,
2013-08-07 01:11:00,59.0,54.0,29.96,South,184,3.0,7.0,83,0.00,,,0.00,,2013-08-07 08:11:00,
2013-08-07 01:21:00,59.0,54.0,29.97,SW,224,3.0,8.0,83,0.00,,,0.00,,2013-08-07 08:21:00,
2013-08-07 01:32:00,59.0,54.0,29.97,SSW,201,2.0,8.0,83,0.00,,,0.00,,2013-08-07 08:32:00,
2013-08-07 01:43:00,59.0,54.0,29.97,SSW,201,2.0,8.0,83,0.00,,,0.00,,2013-08-07 08:43:00,
2013-08-07 01:52:00,59.0,54.0,29.97,SW,234,4.0,9.0,84,0.00,,,0.00,,2013-08-07 08:52:00,
2013-08-07 02:11:00,58.0,54.0,29.97,SW,219,4.0,9.0,85,0.00,,,0.00,,2013-08-07 09:11:00,
2013-08-07 02:21:00,58.0,54.0,29.97,SW,219,4.0,9.0,85,0.00,,,0.00,,2013-08-07 09:21:00,
2013-08-07 02:32:00,58.0,54.0,29.97,South,172,3.0,8.0,85,0.00,,,0.00,,2013-08-07 09:32:00,
2013-08-07 02:43:00,58.0,54.0,29.98,SW,232,4.0,10.0,85,0.00,,,0.00,,2013-08-07 09:43:00,
2013-08-07 02:54:00,58.0,54.0,29.98,SW,232,4.0,10.0,85,0.00,,,0.00,,2013-08-07 09:54:00,
2013-08-07 03:01:00,58.0,54.0,29.98,SSE,147,3.0,14.0,85,0.00,,,0.00,,2013-08-07 10:01:00,
2013-08-07 03:21:00,58.0,54.0,29.98,SSW,203,5.0,10.0,85,0.00,,,0.00,,2013-08-07 10:21:00,
2013-08-07 03:32:00,58.0,54.0,29.98,SSW,200,5.0,10.0,86,0.00,,,0.00,,2013-08-07 10:32:00,
2013-08-07 03:43:00,58.0,54.0,29.98,SW,215,5.0,9.0,85,0.00,,,0.00,,2013-08-07 10:43:00,
2013-08-07 03:52:00,58.0,54.0,29.98,SW,215,5.0,9.0,85,0.00,,,0.00,,2013-08-07 10:52:00,
2013-08-07 04:01:00,58.0,54.0,29.98,South,173,5.0,10.0,85,0.00,,,0.00,,2013-08-07 11:01:00,
2013-08-07 04:11:00,57.0,53.0,29.98,SE,139,4.0,9.0,86,0.00,,,0.00,,2013-08-07 11:11:00,
2013-08-07 04:32:00,57.0,53.0,29.99,SSW,211,6.0,14.0,86,0.00,,,0.00,,2013-08-07 11:32:00,
2013-08-07 04:43:00,57.0,53.0,29.98,SE,135,4.0,11.0,86,0.00,,,0.00,,2013-08-07 11:43:00,
2013-08-07 04:52:00,57.0,53.0,29.98,SE,135,4.0,11.0,86,0.00,,,0.00,,2013-08-07 11:52:00,
2013-08-07 05:02:00,57.0,53.0,29.98,SW,221,3.0,10.0,86,0.00,,,0.00,,2013-08-07 12:02:00,
2013-08-07 05:11:00,57.0,53.0,29.99,SSW,198,3.0,9.0,87,0.00,,,0.00,,2013-08-07 12:11:00,
2013-08-07 05:32:00,57.0,53.0,29.99,SSE,155,4.0,8.0,87,0.00,,,0.00,,2013-08-07 12:32:00,
2013-08-07 05:43:00,57.0,53.0,29.99,SE,124,3.0,8.0,86,0.00,,,0.00,,2013-08-07 12:43:00,
2013-08-07 05:52:00,57.0,53.0,29.99,SE,124,3.0,8.0,86,0.00,,,0.00,,2013-08-07 12:52:00,
2013-08-07 06:02:00,57.0,53.0,29.99,SW,214,3.0,9.0,86,0.00,,,0.00,,2013-08-07 13:02:00,
2013-08-07 06:22:00,57.0,53.0,29.99,SSW,195,3.0,9.0,85,0.00,,,0.00,,2013-08-07 13:22:00,
2013-08-07 06:32:00,57.0,53.0,29.99,SSE,150,2.0,6.0,85,0.00,,,0.00,,2013-08-07 13:32:00,
2013-08-07 06:43:00,57.0,52.0,29.99,SSW,201,2.0,8.0,84,0.00,,,0.00,,2013-08-07 13:43:00,
2013-08-07 06:52:00,57.0,52.0,30.00,SE,133,2.0,8.0,84,0.00,,,0.00,,2013-08-07 13:52:00,
2013-08-07 07:01:00,57.0,52.0,30.00,SE,133,2.0,8.0,84,0.00,,,0.00,,2013-08-07 14:01:00,
2013-08-07 07:11:00,57.0,52.0,30.00,SSE,155,4.0,11.0,84,0.00,,,0.00,,2013-08-07 14:11:00,
2013-08-07 07:22:00,57.0,52.0,30.00,SSE,155,4.0,11.0,84,0.00,,,0.00,,2013-08-07 14:22:00,
2013-08-07 07:33:00,57.0,52.0,30.00,SW,222,2.0,7.0,82,0.00,,,0.00,,2013-08-07 14:33:00,
2013-08-07 07:42:00,58.0,52.0,30.01,SSW,194,3.0,8.0,81,0.00,,,0.00,,2013-08-07 14:42:00,
2013-08-07 07:52:00,58.0,52.0,30.01,SSW,194,3.0,8.0,81,0.00,,,0.00,,2013-08-07 14:52:00,
2013-08-07 08:02:00,59.0,53.0,30.01,SSW,194,2.0,10.0,80,0.00,,,0.00,,2013-08-07 15:02:00,
2013-08-07 08:12:00,60.0,53.0,30.02,SW,215,4.0,8.0,79,0.00,,,0.00,,2013-08-07 15:12:00,
2013-08-07 08:33:00,60.0,53.0,30.02,SSW,198,4.0,9.0,78,0.00,,,0.00,,2013-08-07 15:33:00,
2013-08-07 08:43:00,61.0,54.0,30.03,SSW,212,3.0,11.0,77,0.00,,,0.00,,2013-08-07 15:43:00,
2013-08-07 08:53:00,61.0,54.0,30.03,SSW,212,3.0,11.0,77,0.00,,,0.00,,2013-08-07 15:53:00,
2013-08-07 09:02:00,62.0,54.0,30.03,South,170,4.0,10.0,75,0.00,,,0.00,,2013-08-07 16:02:00,
2013-08-07 09:11:00,62.0,54.0,30.03,SSW,208,3.0,10.0,74,0.00,,,0.00,,2013-08-07 16:11:00,
2013-08-07 09:22:00,62.0,54.0,30.03,SSW,208,3.0,10.0,74,0.00,,,0.00,,2013-08-07 16:22:00,
2013-08-07 09:32:00,62.0,54.0,30.03,South,170,3.0,9.0,75,0.00,,,0.00,,2013-08-07 16:32:00,
2013-08-07 09:43:00,63.0,55.0,30.03,SSW,204,4.0,12.0,74,0.00,,,0.00,,2013-08-07 16:43:00,
2013-08-07 09:52:00,64.0,54.0,30.03,South,184,4.0,12.0,71,0.00,,,0.00,,2013-08-07 16:52:00,
2013-08-07 10:01:00,64.0,54.0,30.03,South,184,4.0,12.0,71,0.00,,,0.00,,2013-08-07 17:01:00,
2013-08-07 10:11:00,66.0,55.0,30.04,SW,226,4.0,12.0,68,0.00,,,0.00,,2013-08-07 17:11:00,
2013-08-07 10:33:00,66.0,55.0,30.04,SE,143,5.0,9.0,67,0.00,,,0.00,,2013-08-07 17:33:00,
2013-08-07 10:43:00,68.0,56.0,30.04,SW,215,3.0,9.0,65,0.00,,,0.00,,2013-08-07 17:43:00,
2013-08-07 10:52:00,68.0,56.0,30.04,WSW,252,7.0,12.0,65,0.00,,,0.00,,2013-08-07 17:52:00,
2013-08-07 11:02:00,68.0,56.0,30.04,WSW,252,7.0,12.0,65,0.00,,,0.00,,2013-08-07 18:02:00,
2013-08-07 11:11:00,69.0,56.0,30.04,WSW,257,4.0,9.0,64,0.00,,,0.00,,2013-08-07 18:11:00,
2013-08-07 11:32:00,69.0,56.0,30.04,WSW,239,3.0,11.0,64,0.00,,,0.00,,2013-08-07 18:32:00,
2013-08-07 11:43:00,69.0,57.0,30.04,WSW,255,5.0,12.0,65,0.00,,,0.00,,2013-08-07 18:43:00,
2013-08-07 11:52:00,69.0,57.0,30.04,WSW,255,5.0,12.0,65,0.00,,,0.00,,2013-08-07 18:52:00,
2013-08-07 12:01:00,70.0,56.0,30.03,SW,229,6.0,11.0,62,0.00,,,0.00,,2013-08-07 19:01:00,
2013-08-07 12:22:00,71.0,56.0,30.03,SW,217,4.0,12.0,60,0.00,,,0.00,,2013-08-07 19:22:00,
2013-08-07 12:32:00,72.0,56.0,30.03,SW,225,5.0,11.0,58,0.00,,,0.00,,2013-08-07 19:32:00,
2013-08-07 12:43:00,71.0,56.0,30.03,SSE,167,4.0,13.0,59,0.00,,,0.00,,2013-08-07 19:43:00,
2013-08-07 12:52:00,71.0,56.0,30.03,SSE,167,4.0,13.0,59,0.00,,,0.00,,2013-08-07 19:52:00,
2013-08-07 13:02:00,72.0,56.0,30.03,SSW,203,3.0,10.0,58,0.00,,,0.00,,2013-08-07 20:02:00,
2013-08-07 13:11:00,72.0,56.0,30.02,SW,225,6.0,14.0,58,0.00,,,0.00,,2013-08-07 20:11:00,
2013-08-07 13:21:00,72.0,56.0,30.02,SW,225,6.0,14.0,58,0.00,,,0.00,,2013-08-07 20:21:00,
2013-08-07 13:32:00,73.0,56.0,30.02,WSW,256,5.0,12.0,56,0.00,,,0.00,,2013-08-07 20:32:00,
2013-08-07 13:43:00,74.0,57.0,30.02,West,262,5.0,12.0,55,0.00,,,0.00,,2013-08-07 20:43:00,
2013-08-07 13:52:00,74.0,57.0,30.02,West,262,5.0,12.0,55,0.00,,,0.00,,2013-08-07 20:52:00,
2013-08-07 14:01:00,75.0,57.0,30.02,WSW,248,5.0,10.0,53,0.00,,,0.00,,2013-08-07 21:01:00,
2013-08-07 14:21:00,76.0,58.0,30.01,ESE,118,5.0,14.0,53,0.00,,,0.00,,2013-08-07 21:21:00,
2013-08-07 14:32:00,77.0,57.0,30.01,West,273,4.0,9.0,51,0.00,,,0.00,,2013-08-07 21:32:00,
2013-08-07 14:43:00,77.0,57.0,30.01,SW,217,3.0,9.0,51,0.00,,,0.00,,2013-08-07 21:43:00,
2013-08-07 15:01:00,77.0,57.0,30.00,SSW,200,3.0,10.0,50,0.00,,,0.00,,2013-08-07 22:01:00,
2013-08-07 15:12:00,78.0,57.0,29.99,SW,217,4.0,8.0,49,0.00,,,0.00,,2013-08-07 22:12:00,
2013-08-07 15:32:00,78.0,58.0,29.98,South,180,4.0,12.0,50,0.00,,,0.00,,2013-08-07 22:32:00,
2013-08-07 15:43:00,78.0,57.0,29.98,SSW,200,5.0,8.0,49,0.00,,,0.00,,2013-08-07 22:43:00,
2013-08-07 15:52:00,78.0,57.0,29.98,SSW,200,5.0,8.0,49,0.00,,,0.00,,2013-08-07 22:52:00,
2013-08-07 16:01:00,78.0,58.0,29.98,SW,236,6.0,11.0,50,0.00,,,0.00,,2013-08-07 23:01:00,
2013-08-07 16:11:00,78.0,58.0,29.98,SW,236,6.0,11.0,50,0.00,,,0.00,,2013-08-07 23:11:00,
2013-08-07 16:22:00,78.0,58.0,29.98,SW,236,6.0,11.0,50,0.00,,,0.00,,2013-08-07 23:22:00,
2013-08-07 16:32:00,79.0,58.0,29.97,WSW,243,4.0,8.0,49,0.00,,,0.00,,2013-08-07 23:32:00,
2013-08-07 16:43:00,79.0,58.0,29.97,West,281,4.0,8.0,49,0.00,,,0.00,,2013-08-07 23:43:00,
2013-08-07 16:52:00,79.0,58.0,29.96,SW,222,4.0,8.0,49,0.00,,,0.00,,2013-08-07 23:52:00,
2013-08-07 17:01:00,79.0,58.0,29.96,SW,222,4.0,8.0,49,0.00,,,0.00,,2013-08-08 00:01:00,
2013-08-07 17:11:00,78.0,57.0,29.96,WSW,243,5.0,12.0,49,0.00,,,0.00,,2013-08-08 00:11:00,
2013-08-07 17:22:00,78.0,57.0,29.96,WSW,243,5.0,12.0,49,0.00,,,0.00,,2013-08-08 00:22:00,
2013-08-07 17:32:00,78.0,58.0,29.96,SW,226,4.0,10.0,51,0.00,,,0.00,,2013-08-08 00:32:00,
2013-08-07 17:42:00,77.0,57.0,29.96,WSW,251,4.0,10.0,51,0.00,,,0.00,,2013-08-08 00:42:00,
2013-08-07 17:52:00,77.0,57.0,29.96,WSW,251,4.0,10.0,51,0.00,,,0.00,,2013-08-08 00:52:00,
2013-08-07 18:02:00,77.0,58.0,29.96,SE,143,4.0,10.0,52,0.00,,,0.00,,2013-08-08 01:02:00,
2013-08-07 18:11:00,77.0,58.0,29.96,SE,143,4.0,10.0,52,0.00,,,0.00,,2013-08-08 01:11:00,
2013-08-07 18:21:00,76.0,58.0,29.96,SW,233,7.0,13.0,54,0.00,,,0.00,,2013-08-08 01:21:00,
2013-08-07 18:32:00,76.0,58.0,29.96,SW,233,7.0,13.0,54,0.00,,,0.00,,2013-08-08 01:32:00,
2013-08-07 18:43:00,76.0,58.0,29.95,South,171,3.0,8.0,54,0.00,,,0.00,,2013-08-08 01:43:00,
2013-08-07 18:52:00,75.0,58.0,29.95,WSW,258,5.0,12.0,55,0.00,,,0.00,,2013-08-08 01:52:00,
2013-08-07 19:01:00,75.0,58.0,29.95,WSW,258,5.0,12.0,55,0.00,,,0.00,,2013-08-08 02:01:00,
2013-08-07 19:11:00,73.0,57.0,29.96,SW,235,7.0,13.0,57,0.00,,,0.00,,2013-08-08 02:11:00,
2013-08-07 19:22:00,73.0,57.0,29.96,SW,235,7.0,13.0,57,0.00,,,0.00,,2013-08-08 02:22:00,
2013-08-07 19:32:00,72.0,57.0,29.96,SSW,211,7.0,15.0,59,0.00,,,0.00,,2013-08-08 02:32:00,
2013-08-07 19:42:00,71.0,57.0,29.96,WSW,247,6.0,11.0,61,0.00,,,0.00,,2013-08-08 02:42:00,
2013-08-07 19:52:00,70.0,57.0,29.96,South,185,6.0,13.0,63,0.00,,,0.00,,2013-08-08 02:52:00,
2013-08-07 20:01:00,70.0,57.0,29.96,South,185,6.0,13.0,63,0.00,,,0.00,,2013-08-08 03:01:00,
2013-08-07 20:12:00,68.0,56.0,29.96,South,187,6.0,14.0,66,0.00,,,0.00,,2013-08-08 03:12:00,
2013-08-07 20:32:00,67.0,56.0,29.96,SW,219,3.0,10.0,68,0.00,,,0.00,,2013-08-08 03:32:00,
2013-08-07 20:43:00,66.0,56.0,29.96,WSW,249,6.0,12.0,70,0.00,,,0.00,,2013-08-08 03:43:00,
2013-08-07 20:52:00,66.0,56.0,29.96,WSW,249,6.0,12.0,70,0.00,,,0.00,,2013-08-08 03:52:00,
2013-08-07 21:01:00,66.0,56.0,29.96,SSW,210,3.0,9.0,71,0.00,,,0.00,,2013-08-08 04:01:00,
2013-08-07 21:11:00,65.0,56.0,29.97,WSW,249,4.0,8.0,72,0.00,,,0.00,,2013-08-08 04:11:00,
2013-08-07 21:32:00,65.0,56.0,29.97,SSW,203,3.0,11.0,73,0.00,,,0.00,,2013-08-08 04:32:00,
2013-08-07 21:43:00,64.0,56.0,29.97,SSE,162,3.0,7.0,75,0.00,,,0.00,,2013-08-08 04:43:00,
2013-08-07 21:53:00,64.0,56.0,29.97,SSE,162,3.0,7.0,75,0.00,,,0.00,,2013-08-08 04:53:00,
2013-08-07 22:01:00,64.0,56.0,29.97,SSW,213,2.0,6.0,76,0.00,,,0.00,,2013-08-08 05:01:00,
2013-08-07 22:11:00,63.0,56.0,29.98,SW,232,3.0,7.0,77,0.00,,,0.00,,2013-08-08 05:11:00,
2013-08-07 22:33:00,63.0,56.0,29.98,WSW,256,2.0,5.0,78,0.00,,,0.00,,2013-08-08 05:33:00,
2013-08-07 22:43:00,63.0,56.0,29.98,SE,129,2.0,5.0,78,0.00,,,0.00,,2013-08-08 05:43:00,
2013-08-07 22:52:00,63.0,56.0,29.98,SE,129,2.0,5.0,78,0.00,,,0.00,,2013-08-08 05:52:00,
2013-08-07 23:01:00,62.0,55.0,29.98,SSW,193,2.0,5.0,79,0.00,,,0.00,,2013-08-08 06:01:00,
2013-08-07 23:11:00,62.0,55.0,29.98,ESE,119,1.0,6.0,79,0.00,,,0.00,,2013-08-08 06:11:00,
2013-08-07 23:21:00,62.0,55.0,29.98,ESE,119,1.0,6.0,79,0.00,,,0.00,,2013-08-08 06:21:00,
2013-08-07 23:32:00,62.0,55.0,29.98,SE,135,2.0,4.0,79,0.00,,,0.00,,2013-08-08 06:32:00,
2013-08-07 23:42:00,62.0,56.0,29.98,South,190,3.0,8.0,80,0.00,,,0.00,,2013-08-08 06:42:00,
2013-08-07 23:52:00,62.0,56.0,29.98,South,190,3.0,8.0,80,0.00,,,0.00,,2013-08-08 06:52:00,